| time (UTC) | temp F | wind direction | speed knots | gust knots | rain 1hr in | rain 24hr in | rain mn in | humidity % | barometer mb |
| 20260901224602 | 81 | 215 | 6.1 | 13.0 | 0.00 | 0.00 | 0.00 | 30 | 1013.8 |
| 20260901223105 | 81 | 198 | 4.3 | 9.6 | 0.00 | 0.00 | 0.00 | 30 | 1013.8 |
| 20260901221624 | 81 | 197 | 5.2 | 13.9 | 0.00 | 0.00 | 0.00 | 30 | 1014.0 |
| 20260901220107 | 82 | 278 | 7.0 | 16.5 | 0.00 | 0.00 | 0.00 | 29 | 1014.0 |
| 20260901214602 | 80 | 182 | 5.2 | 19.1 | 0.00 | 0.00 | 0.00 | 32 | 1014.1 |
| 20260901213109 | 81 | 198 | 5.2 | 13.9 | 0.00 | 0.00 | 0.00 | 31 | 1014.3 |
| 20260901211612 | 81 | 222 | 5.2 | 14.8 | 0.00 | 0.00 | 0.00 | 31 | 1014.5 |
| 20260901210106 | 81 | 230 | 6.1 | 17.4 | 0.00 | 0.00 | 0.00 | 33 | 1014.5 |
| 20260901204605 | 80 | 238 | 7.8 | 18.2 | 0.00 | 0.00 | 0.00 | 34 | 1014.7 |
| 20260901203105 | 80 | 199 | 7.0 | 13.0 | 0.00 | 0.00 | 0.00 | 37 | 1014.9 |
| 20260901201558 | 78 | 219 | 6.1 | 18.2 | 0.00 | 0.00 | 0.00 | 38 | 1015.1 |
| 20260901200108 | 80 | 189 | 5.2 | 13.9 | 0.00 | 0.00 | 0.00 | 36 | 1015.2 |
| 20260901194605 | 78 | 146 | 3.5 | 13.0 | 0.00 | 0.00 | 0.00 | 38 | 1015.3 |
| 20260901193126 | 77 | 182 | 3.5 | 9.6 | 0.00 | 0.00 | 0.00 | 40 | 1015.6 |
| 20260901191612 | 76 | 261 | 6.1 | 11.3 | 0.00 | 0.00 | 0.00 | 42 | 1015.9 |
| 20260901190127 | 77 | 277 | 3.5 | 11.3 | 0.00 | 0.00 | 0.00 | 38 | 1015.8 |
| 20260901184606 | 76 | 187 | 4.3 | 11.3 | 0.00 | 0.00 | 0.00 | 39 | 1015.9 |
| 20260901183107 | 76 | 227 | 2.6 | 11.3 | 0.00 | 0.00 | 0.00 | 42 | 1016.4 |
| 20260901181613 | 76 | 260 | 7.0 | 19.1 | 0.00 | 0.00 | 0.00 | 42 | 1016.5 |
| 20260901174606 | 74 | 248 | 3.5 | 12.2 | 0.00 | 0.00 | 0.00 | 44 | 1017.0 |
| 20260901173105 | 74 | 222 | 5.2 | 10.4 | 0.00 | 0.00 | 0.00 | 44 | 1017.2 |
| 20260901171609 | 73 | 213 | 3.5 | 10.4 | 0.00 | 0.00 | 0.00 | 44 | 1017.4 |
| 20260901170159 | 73 | 199 | 3.5 | 11.3 | 0.00 | 0.00 | 0.00 | 45 | 1017.4 |
| 20260901164559 | 73 | 247 | 5.2 | 11.3 | 0.00 | 0.00 | 0.00 | 45 | 1017.5 |
| 20260901163103 | 73 | 226 | 4.3 | 10.4 | 0.00 | 0.00 | 0.00 | 46 | 1017.6 |
| 20260901161615 | 72 | 182 | 3.5 | 8.7 | 0.00 | 0.00 | 0.00 | 46 | 1017.7 |
| 20260901160101 | 72 | 189 | 6.1 | 11.3 | 0.00 | 0.00 | 0.00 | 46 | 1017.8 |
| 20260901154612 | 71 | 178 | 1.7 | 7.0 | 0.00 | 0.00 | 0.00 | 48 | 1017.8 |
| 20260901153123 | 70 | 157 | 1.7 | 7.0 | 0.00 | 0.00 | 0.00 | 48 | 1017.9 |
| 20260901151559 | 69 | 195 | 0.0 | 7.8 | 0.00 | 0.00 | 0.00 | 49 | 1018.0 |
| 20260901150110 | 68 | 218 | 3.5 | 7.8 | 0.00 | 0.00 | 0.00 | 51 | 1018.0 |
| 20260901144602 | 67 | 191 | 0.9 | 6.1 | 0.00 | 0.00 | 0.00 | 52 | 1018.0 |
| 20260901143102 | 66 | 162 | 1.7 | 6.1 | 0.00 | 0.00 | 0.00 | 53 | 1018.1 |
| 20260901141600 | 66 | 192 | 2.6 | 6.1 | 0.00 | 0.00 | 0.00 | 54 | 1018.2 |
| 20260901134604 | 65 | 201 | 1.7 | 5.2 | 0.00 | 0.00 | 0.00 | 54 | 1018.2 |
| 20260901133100 | 65 | 190 | 2.6 | 7.0 | 0.00 | 0.00 | 0.00 | 53 | 1018.1 |
| 20260901131625 | 64 | 187 | 0.9 | 3.5 | 0.00 | 0.00 | 0.00 | 55 | 1018.1 |
| 20260901130104 | 64 | 0 | 0.0 | 0.9 | 0.00 | 0.00 | 0.00 | 55 | 1018.0 |
| 20260901124602 | 64 | 0 | 0.0 | 4.3 | 0.00 | 0.00 | 0.00 | 54 | 1017.9 |
| 20260901123101 | 64 | 158 | 1.7 | 5.2 | 0.00 | 0.00 | 0.00 | 53 | 1017.8 |
| 20260901121557 | 64 | 161 | 0.9 | 3.5 | 0.00 | 0.00 | 0.00 | 51 | 1018.0 |
| 20260901114604 | 65 | 123 | 0.9 | 3.5 | 0.00 | 0.00 | 0.00 | 48 | 1018.1 |
| 20260901113111 | 63 | 0 | 0.0 | 1.7 | 0.00 | 0.00 | 0.00 | 46 | 1017.9 |
| 20260901111610 | 62 | 0 | 0.0 | 0.9 | 0.00 | 0.00 | 0.00 | 41 | 1017.8 |
| 20260901110118 | 62 | 90 | 0.9 | 5.2 | 0.00 | 0.00 | 0.00 | 37 | 1018.0 |
| 20260901104605 | 62 | 82 | 2.6 | 6.1 | 0.00 | 0.00 | 0.00 | 35 | 1018.0 |
| 20260901103104 | 62 | 0 | 0.0 | 1.7 | 0.00 | 0.00 | 0.00 | 36 | 1018.3 |
| 20260901101609 | 60 | 105 | 0.0 | 1.7 | 0.00 | 0.00 | 0.00 | 38 | 1018.5 |
| 20260901100111 | 60 | 350 | 0.9 | 3.5 | 0.00 | 0.00 | 0.00 | 37 | 1018.3 |
| 20260901094607 | 60 | 350 | 0.0 | 2.6 | 0.00 | 0.00 | 0.00 | 36 | 1018.3 |
| 20260901093106 | 60 | 350 | 0.0 | 2.6 | 0.00 | 0.00 | 0.00 | 36 | 1018.2 |
| 20260901091604 | 60 | 350 | 0.0 | 1.7 | 0.00 | 0.00 | 0.00 | 36 | 1018.1 |
| 20260901090105 | 59 | 0 | 0.0 | 2.6 | 0.00 | 0.00 | 0.00 | 38 | 1017.9 |
| 20260901084613 | 58 | 350 | 1.7 | 4.3 | 0.00 | 0.00 | 0.00 | 39 | 1017.9 |
| 20260901083107 | 58 | 0 | 0.0 | 1.7 | 0.00 | 0.00 | 0.00 | 43 | 1017.9 |
| 20260901081618 | 59 | 350 | 0.0 | 0.0 | 0.00 | 0.00 | 0.00 | 40 | 1017.9 |
| 20260901080104 | 60 | 0 | 0.0 | 0.9 | 0.00 | 0.00 | 0.00 | 40 | 1018.1 |
| 20260901074559 | 60 | 0 | 0.0 | 1.7 | 0.00 | 0.00 | 0.00 | 39 | 1018.4 |
| 20260901073100 | 61 | 350 | 0.0 | 1.7 | 0.00 | 0.00 | 0.00 | 37 | 1018.4 |
| 20260901071608 | 62 | 0 | 0.0 | 1.7 | 0.00 | 0.00 | 0.00 | 36 | 1018.4 |
| 20260901070104 | 62 | 239 | 0.0 | 1.7 | 0.00 | 0.00 | 0.00 | 35 | 1018.1 |
| 20260901064602 | 62 | 239 | 0.9 | 1.7 | 0.00 | 0.00 | 0.00 | 34 | 1018.3 |
| 20260901063103 | 64 | 239 | 0.0 | 1.7 | 0.00 | 0.00 | 0.00 | 32 | 1018.1 |
| 20260901061615 | 65 | 0 | 0.0 | 1.7 | 0.00 | 0.00 | 0.00 | 31 | 1018.1 |
| 20260901060105 | 66 | 0 | 0.0 | 1.7 | 0.00 | 0.00 | 0.00 | 30 | 1018.2 |
| 20260901054614 | 67 | 239 | 0.0 | 2.6 | 0.00 | 0.00 | 0.00 | 28 | 1018.4 |
| 20260901053124 | 68 | 0 | 0.0 | 2.6 | 0.00 | 0.00 | 0.00 | 26 | 1018.5 |
| 20260901051603 | 69 | 0 | 0.9 | 2.6 | 0.00 | 0.00 | 0.00 | 24 | 1018.6 |
| 20260901050108 | 69 | 210 | 0.0 | 2.6 | 0.00 | 0.00 | 0.00 | 24 | 1018.4 |
| 20260901044559 | 69 | 0 | 0.0 | 1.7 | 0.00 | 0.00 | 0.00 | 24 | 1018.5 |
| 20260901043103 | 70 | 265 | 0.0 | 2.6 | 0.00 | 0.00 | 0.00 | 22 | 1018.3 |
| 20260901041608 | 71 | 186 | 0.0 | 3.5 | 0.00 | 0.00 | 0.00 | 21 | 1018.4 |
| 20260901040138 | 72 | 84 | 3.5 | 10.4 | 0.00 | 0.00 | 0.00 | 20 | 1018.3 |
| 20260901034601 | 70 | 0 | 0.9 | 5.2 | 0.00 | 0.00 | 0.00 | 21 | 1018.3 |
| 20260901033121 | 70 | 0 | 0.0 | 0.9 | 0.00 | 0.00 | 0.00 | 21 | 1018.4 |
| 20260901031611 | 71 | 0 | 0.0 | 1.7 | 0.00 | 0.00 | 0.00 | 23 | 1018.4 |
| 20260901030105 | 73 | 80 | 2.6 | 5.2 | 0.00 | 0.00 | 0.00 | 20 | 1018.5 |
| 20260901024601 | 74 | 72 | 1.7 | 6.1 | 0.00 | 0.00 | 0.00 | 19 | 1018.2 |
| 20260901023102 | 74 | 0 | 0.0 | 1.7 | 0.00 | 0.00 | 0.00 | 19 | 1017.9 |
| 20260901021602 | 74 | 72 | 0.0 | 3.5 | 0.00 | 0.00 | 0.00 | 19 | 1017.7 |
| 20260901014602 | 76 | 0 | 0.0 | 1.7 | 0.00 | 0.00 | 0.00 | 19 | 1017.5 |
| 20260901013107 | 77 | 313 | 0.9 | 2.6 | 0.00 | 0.00 | 0.00 | 16 | 1017.5 |
| 20260901011602 | 79 | 0 | 0.0 | 1.7 | 0.00 | 0.00 | 0.00 | 16 | 1017.4 |
| 20260901010100 | 80 | 313 | 0.0 | 3.5 | 0.00 | 0.00 | 0.00 | 15 | 1017.3 |
| 20260901004603 | 81 | 292 | 2.6 | 10.4 | 0.00 | 0.00 | 0.00 | 13 | 1017.3 |
| 20260901003107 | 82 | 246 | 1.7 | 6.1 | 0.00 | 0.00 | 0.00 | 12 | 1017.1 |
| 20260901001608 | 83 | 232 | 2.6 | 7.0 | 0.00 | 0.00 | 0.00 | 10 | 1017.0 |
| 20260901000105 | 83 | 255 | 2.6 | 8.7 | 0.00 | 0.00 | 0.00 | 11 | 1016.8 |
| 20260831234604 | 83 | 224 | 3.5 | 9.6 | 0.00 | 0.00 | 0.00 | 10 | 1016.8 |
| 20260831233104 | 84 | 237 | 1.7 | 7.8 | 0.00 | 0.00 | 0.00 | 10 | 1016.8 |
| 20260831231606 | 84 | 0 | 4.3 | 8.7 | 0.00 | 0.00 | 0.00 | 9 | 1016.8 |
| 20260831230142 | 85 | 226 | 4.3 | 11.3 | 0.00 | 0.00 | 0.00 | 10 | 1016.8 |